Regional Weather Roundup
Issued by NWS Wakefield, VA

Home | Current Version | Previous Version | Graphics & Text | Print | Product List | Glossary On
Versions: 1 2 3 4 5 6 7 8 9 10 11 12 13 14 15 16 17 18 19 20 21 22 23 24 25 26 27 28
000
ASUS41 KAKQ 190015
RWRAKQ

REGIONAL WEATHER ROUNDUP
NATIONAL WEATHER SERVICE WAKEFIELD VA
800 PM EDT FRI AUG 18 2017

Note: "fair" indicates few or no clouds below 12,000 feet with no
significant weather and/or obstructions to visibility. * = Denotes
station may not report precipitation (e.g., rain,snow,etc.),
thunder or fog.

VAZ042-051-052>054-056-190100-
NORTHERN VIRGINIA

CITY           SKY/WX    TMP DP  RH WIND       PRES   REMARKS
WASH NATIONAL  CLOUDY    80  76  87 CALM      29.81R THUNDER
DULLES         MOCLDY    78  77  96 S3        29.83R
FORT BELVOIR   CLOUDY    78  75  90 CALM      29.81R
QUANTICO       TSTM      82  79  90 S12       29.83R FOG
FREDERICKSBRG* LGT RAIN  80  75  86 SW9       29.81R
STAFFORD*      CLOUDY    81  76  84 CALM      29.86R
WARRENTON      CLOUDY    82  72  71 CALM      29.82R
CULPEPER*      CLOUDY    83  74  76 NW3       29.83R
MANASSAS*      CLOUDY    81  75  82 CALM      29.83R
LEESBURG*      MOCLDY    81  79  94 S3        29.84R
WINCHESTER     CLEAR     77  70  78 S3        29.83R
FRONT ROYAL*   CLEAR     77  72  83 S7        29.81R
LURAY*         CLEAR     75  73  94 CALM      29.85R
$$

VAZ048-049-060>072-079>083-190100-
CENTRAL AND SOUTH CENTRAL VIRGINIA

CITY           SKY/WX    TMP DP  RH WIND       PRES   REMARKS
RICHMOND       CLOUDY    88  76  67 NW24G37   29.84R THUNDER HX  99
CHESTERFIELD*  MOCLDY    82  72  71 NW15G28   29.83  THUNDER
PETERSBURG*    CLEAR     84  76  75 CALM      29.81R
HANOVER        TSTM      76  68  76 S9G16     29.84R
TAPPAHANNOCK*  CLOUDY    87  70  56 SE8       29.82R
QUINTON*       FAIR      86  80  81 CALM      29.81R HX 100
CHARLOTTSVILLE CLOUDY    83  77  82 SE5       29.84R
GORDONSVILLE*  CLOUDY    81  77  87 CALM      29.83R
ORANGE*        CLOUDY    79  73  83 CALM      29.82R
LOUISA*        CLOUDY    75  73  94 CALM      29.82R
BUMPASS*       MOCLDY    76  76 100 CALM      29.83S
FARMVILLE*     CLOUDY    79  77  93 CALM      29.81S
CREWE*         CLOUDY    82  71  68 CALM      29.82R
FORT PICKETT*  FAIR     N/A N/A N/A S7        29.81S
CHASE CITY*    MOCLDY    83  78  86 CALM      29.82S
CLARKSVILLE*   FAIR      81  81 100 CALM      29.82R
SOUTH HILL*    CLEAR     83  79  87 S6        29.87S HX  95
LAWRENCEVILLE* FAIR      84  77  81 CALM      29.82R
EMPORIA*       CLEAR     84  77  79 CALM      29.84R
$$

VAZ088>098-190100-
SOUTHEAST VIRGINIA

CITY           SKY/WX    TMP DP  RH WIND       PRES   REMARKS
NORFOLK        NOT AVBL
VIRGINIA BEACH PTCLDY    83  73  72 S8        29.81S
NORFOLK NAVAL  PTCLDY    85  74  69 SW8       29.83R
WEST POINT*    CLEAR     87  76  69 SW6       29.81R HX  97
SALUDA*        FAIR      83  79  89 S5        29.81R
NEWPORT NEWS   CLEAR     86  75  69 SW13      29.81R HX  95
LANGLEY AFB    NOT AVBL
FORT EUSTIS    CLEAR     86  78  75 SW7       29.80R HX  98
WILLIAMSBURG*  CLEAR     90  79  70 CALM      29.83R HX 105
HR EXEC AP*    FAIR      84  73  70 SW8       29.79R
FRANKLIN*      CLEAR     83  77  82 S7        29.82R
US460-WAKEFLD  CLEAR     86  79  79 S3        29.82R HX  99
$$

VAZ020-022-025-037-045-190100-
WEST CENTRAL AND SOUTHWEST VIRGINIA

CITY           SKY/WX    TMP DP  RH WIND       PRES   REMARKS
STAUNTON*      PTCLDY    80  70  71 CALM      29.88R
WAYNESBORO*    CLOUDY    80  72  75 SW6       29.88R
HOT SPRINGS VA CLOUDY    70  64  83 W16       30.03F
LYNCHBURG      CLOUDY    77  74  90 SW3       29.86S
DANVILLE       CLOUDY    81  73  76 W7        29.86R
SOUTH BOSTON*  FAIR      85  74  68 CALM      29.83R
MARTINSVILLE   CLOUDY    76  75  95 CALM      29.92F
ROANOKE        CLOUDY    80  67  64 W7        29.91S
BLACKSBURG     MOCLDY    73  67  82 CALM      30.01S
DUBLIN*        MOCLDY    74  69  85 W5        30.00S
MARION*        CLEAR     73  61  66 W5        30.04S
HILLSVILLE*    CLOUDY    74  60  63 CALM      30.01S
RICHLANDS*     MOCLDY    73  63  71 CALM      30.03S
WISE*          CLEAR     73  63  68 W5        30.05S
ABINGDON*      MOCLDY    77  72  83 CALM      30.00R
$$

MDZ021>025-VAZ099-100-190100-
SOUTHERN MARYLAND AND THE DELMARVA PENINSULA

CITY           SKY/WX    TMP DP  RH WIND       PRES   REMARKS
PATUXENT RIVER CLOUDY    78  73  84 NW17G26   29.82R THUNDER
BAY BRIDGE APT TSTM      75  73  94 NE6       29.81R FOG
LEONARDTOWN    CLOUDY    77  72  83 W5G20     29.86R
DOVER          TSTM      73  73 100 SW3       29.80F FOG
GEORGETOWN     CLOUDY    79  76  90 CALM      29.81R THUNDER
EASTON         TSTM      77  73  88 N12G18    29.85R VSB 1/2
CAMBRIDGE      MOCLDY    84  79  84 S8        29.79S HX  96
SALISBURY      CLOUDY    82  80  94 SE7       29.80R
OCEAN CITY     PTCLDY    79  78  97 S6        29.82S
WALLOPS ISLAND CLEAR     80  75  84 S14       29.82R
ACCOMACK*      CLEAR     83  77  82 S7        29.84R
$$

NCZ012>017-030>032-190100-
NORTH CENTRAL AND EASTERN NORTH CAROLINA

CITY           SKY/WX    TMP DP  RH WIND       PRES   REMARKS
ROANOKE RAPIDS FAIR      84  77  79 S5        29.82S
RALEIGH        PTCLDY    90  73  57 SW12      29.85R HX  98
ELIZABETH CITY CLEAR     83  79  88 S9        29.84F
AHOSKIE*         N/A     82  79  90 S5        29.83S
EDENTON*       CLEAR     85  78  79 S10       29.84F HX  97
CURRITUCK*     CLEAR     83  76  80 S5        29.83F
KILL DEVIL HLS CLEAR     82  78  86 CALM      29.85S
MANTEO         CLEAR     83  80  90 SW16      29.86F HX  95
CAPE HATTERAS  NOT AVBL
TARBORO*       NOT AVBL
GOLDSBORO      CLEAR     89  77  69 S6        29.85R HX 101
WASHINGTON     CLEAR     86  79  78 S8        29.85S HX  99
GREENVILLE     CLEAR     88  81  79 SW8       29.86F HX 105
NEW BERN       CLEAR     83  79  88 S10       29.88S
WILMINGTON     CLEAR     86  77  74 S10       29.90R HX  97
$$

VAZ048-190100-
ELSEWHERE

CITY           SKY/WX    TMP DP  RH WIND       PRES   REMARKS
HARRISBURG PA  CLOUDY    78  76  93 SE6       29.78S
BALTIMORE      LGT RAIN  76  75  97 SE6       29.80S
ANNAPOLIS      LGT RAIN  78  77  96 CALM      29.80S FOG
ANDREWS AFB    CLOUDY    77  73  88 SE3       29.82R
PHILADELPHIA   CLOUDY    75  73  93 SE3       29.79F
HENDERSON NC   CLEAR     83  74  74 S6        29.84S
GREENSBORO     TSTM      81  73  76 W13       29.89R
ROCKY MOUNT    CLEAR     85  77  77 S6        29.84S HX  95
$$

VAZ100-190100-
MARINE

STATION/POSITION TIME  TEMP    WIND        PRES    WAVE   SWELL
                       AIR SEA DIR/SP/G            HT/PER HT/PER
                 (UTC) (F)     (DEG/KT/KT) (MB)    (FT/S) (FT/S)
BRANDYWINE LGT   2342   78     180/ 24/ 33 1008.9F
CAPE MAY NJ      2348   77 80  200/ 10/ 18 1009.1R
LEWES DE         2342   79 77  130/  3/  4 1009.3R
15NM E FENWICK I 2350   79 78  180/ 14/ 17 1010.0F   3/ 5   2/ 9
OCEAN-CITY-INLET 2342   77 76  200/  7/ 10 1009.9F
WACHAPREAGUE VA  2342   84 85  200/ 13/ 16 1009.0R
THOMAS POINT MD  0000   76 80  340/  4/  5   N/A
GOOSES REEF MD   0000   79 80  270/ 14/ 21 1010.9    2/ 3
COVE POINT MD    2342   76     340/ 33/ 39 1008.8S
SOLOMONS ISLAND  2342   78 82  330/ 13/ 20   N/A
BISHOPS HEAD MD  2342   84 85  180/ 13/ 16 1008.8R
PINEY POINT MD   2342          220/  9/  9   N/A
POTOMAC MD       0000   84 83  160/  8/ 10 1007.9    2/ 3
CAMBRIDGE MD     2342   85 83              1009.5R
LEWISETTA VA     2342   86 85  210/  8/  9 1008.8R
RAPPAHANNOCK LGT 2342          170/ 18/ 20 1009.4R
STINGRAY PT      0000   84 82  220/  8/ 10 1010.0    2/ 3
YORK RVR RNG VA  2342   86     220/ 17/ 19 1009.1R
YORKTOWN VA      2342   87 82  200/ 10/ 16 1008.6R
JAMESTOWN VA     0000      85  200/  8/ 12   N/A     0
DOMINION TERM VA 2342   85     200/ 11/ 14 1009.1F
KIPTOPEKE VA     2342      81  190/ 15/ 17   N/A
CHES BAY BRIDGE  2342   85 79  220/ 19/ 22 1008.8F
CAPE HENRY VA    2342   84     190/  8/ 17   N/A
WILLOUBY STN VA  2342   86     210/ 17/ 18 1009.2R
S CRANEY ISL VA  2342   86     200/ 12/ 16 1008.8F
CAPE HENRY BUOY  0000      80                N/A     3/ 4
1ST LANDING BUOY 0000   83 78              1009.5    2/ 3
64NM E OF VA BCH 2350   80 78  200/ 16/ 17 1010.8S   4/ 4   2/ 9
DUCK PIER NC     2342   83 74  180/ 15/ 19 1009.9F
44100 DUCK FRF   2305      80                N/A     2/ 9
44056 DUCK FRF   2330      78                N/A     2/ 9
OREGON INLET NC  2342   82 85  190/ 16/ 20 1011.1F
HATTERAS NC      2342   84 85  200/  7/ 12 1011.9F
DIAMOND SHLS NC  2350   85 85  200/ 19/ 23 1012.0S   4/ 5   2/ 8
CAPE LOOKOUT NC  0000   84     210/ 15/ 19 1012.1R
$$




USA.gov is the U.S. government's official web portal to all federal, state and local government web resources and services.